Overview Statistics Trail Chart Weather Telemetry Raw packets
 

This is the latest recevied weather packets stored in our database for station/object OE5MMP-13. If no packets are shown the sender has not sent any weather packets the latest 10 day(s).

<< 53 54 55 56 57 58 >>
Time Temp. Humidity Pressure Rain* Wind** Luminosity Snow
1787862204 23.89° C 62% 1015.6 hPa 0 mm - 0 W/m² -
1787861604 23.33° C 62% 1015.4 hPa 0 mm - 0 W/m² -
1787861005 23.89° C 61% 1015.4 hPa 0 mm - 0 W/m² -
1787860405 23.89° C 61% 1015.3 hPa 0 mm - 0 W/m² -
1787859805 24.44° C 61% 1015.5 hPa 0 mm - 0 W/m² -
1787859204 24.44° C 61% 1015.4 hPa 0 mm - 0 W/m² -
1787858604 24.44° C 60% 1015.6 hPa 0 mm - 0 W/m² -
1787858004 24.44° C 60% 1015.4 hPa 0 mm - 0 W/m² -
1787857405 24.44° C 60% 1015.5 hPa 0 mm - 0 W/m² -
1787856804 24.44° C 60% 1015.5 hPa 0 mm - 0 W/m² -
1787856204 24.44° C 61% 1015.5 hPa 0 mm - 0 W/m² -
1787855604 24.44° C 61% 1015.5 hPa 0 mm - 0 W/m² -
1787855005 25° C 60% 1015.5 hPa 0 mm - 0 W/m² -
1787854405 25.56° C 59% 1015.4 hPa 0 mm - 0 W/m² -
1787853804 25.56° C 59% 1015.3 hPa 0 mm - 0 W/m² -
1787853204 25.56° C 59% 1015.2 hPa 0 mm - 0 W/m² -
1787852604 25.56° C 58% 1015.1 hPa 0 mm - 5 W/m² -
1787852004 26.11° C 58% 1015 hPa 0 mm - 9 W/m² -
1787851404 26.11° C 57% 1015 hPa 0 mm - 22 W/m² -
1787850804 26.11° C 57% 1015 hPa 0 mm - 32 W/m² -
1787850204 26.11° C 57% 1015 hPa 0 mm - 56 W/m² -
1787849604 26.11° C 58% 1015.1 hPa 0 mm - 53 W/m² -
1787849004 26.67° C 57% 1015.3 hPa 0 mm - 47 W/m² -
1787848404 26.67° C 56% 1015.4 hPa 0 mm - 49 W/m² -
1787847804 27.22° C 56% 1015.5 hPa 0 mm - 60 W/m² -

* Rain latest hour (hover to see other rain measurements)
** Current wind speed in m/s (hover to see current wind gust speed)